Wind_Speed
30 29 26 25 23 21 17 18 17 13 12 13 12 11 9 4 1 4 3 2 4 4 6 8 11 9 7 6 8 13 10 13 13 13 12 10 7 4 5 5 8 7 6 6 7 9 11 12 12
27 29 27 24 22 20 19 18 15 13 12 11 9 7 4 2 0 3 1 0 2 2 7 10 12 11 6 6 9 16 11 10 13 13 11 7 6 4 5 6 6 5 7 9 10 11 12 12 12
28 28 27 23 22 20 19 18 14 11 10 10 7 5 4 3 3 1 1 1 2 5 11 10 10 8 9 9 10 14 13 13 11 12 9 6 4 4 4 5 6 9 11 11 10 11 11 11 12
29 28 26 24 23 20 19 16 14 10 10 9 5 6 6 5 4 2 2 3 4 7 9 9 14 16 14 11 8 14 18 14 13 10 8 4 4 4 4 6 10 11 11 11 10 10 11 12 12
30 28 26 24 23 22 20 15 15 11 10 8 6 8 8 7 5 3 4 6 8 11 12 16 18 17 14 13 13 17 16 15 13 8 5 4 4 3 6 9 10 10 9 9 10 10 10 11 11
29 28 26 24 25 23 21 17 16 12 11 8 9 10 11 9 5 4 7 10 13 15 17 19 17 16 16 15 14 15 14 11 8 5 5 5 5 7 9 9 9 8 8 9 9 9 10 10 11
29 26 26 24 25 23 21 17 16 13 13 9 10 12 14 11 7 6 10 14 19 20 20 17 17 16 15 14 14 12 10 8 6 7 6 6 8 9 8 6 7 8 9 8 8 9 9 9 9
32 26 26 24 24 23 21 18 17 16 14 11 11 14 16 14 10 11 16 18 23 21 18 14 14 14 14 13 11 10 9 8 7 7 7 9 8 7 6 6 7 6 7 7 8 9 9 9 10
33 29 26 24 25 25 23 21 19 18 16 14 14 15 17 17 14 15 19 18 17 18 17 17 16 14 13 11 10 10 8 7 8 9 9 9 7 7 6 5 5 6 7 9 8 8 8 9 11
35 32 28 28 29 27 24 23 21 20 18 17 14 14 17 19 18 17 20 21 17 16 18 16 14 12 11 10 9 9 8 10 11 11 10 9 9 8 5 4 5 6 6 6 6 7 8 10 11
34 32 30 30 31 27 23 23 23 21 22 17 15 15 16 20 21 20 23 20 19 19 15 14 13 13 12 11 10 10 12 13 13 12 12 11 8 6 4 5 4 4 3 3 5 7 8 10 12
32 31 32 31 32 27 26 23 25 24 22 19 16 16 17 20 21 22 22 23 21 21 17 16 17 18 16 14 12 12 13 14 13 14 13 11 9 6 4 3 2 1 2 3 5 7 10 11 13
31 28 31 32 32 28 27 27 28 26 22 20 18 19 18 18 20 21 21 19 18 21 20 19 19 20 18 17 15 16 16 14 14 14 12 10 7 5 3 2 0 1 3 4 6 8 11 13 15
35 34 35 34 33 31 31 29 26 26 24 23 22 21 19 20 20 20 22 22 18 19 20 21 19 19 19 17 17 19 19 18 18 16 12 8 5 2 1 2 3 4 5 6 8 11 14 16 17
37 39 37 37 35 35 35 32 28 30 27 26 25 23 22 21 21 21 20 21 20 19 19 19 21 21 19 19 19 18 17 18 16 14 11 9 5 4 4 5 6 8 8 10 11 12 16 18 19
40 41 42 35 38 40 37 34 36 34 31 30 29 26 23 22 24 22 21 19 18 19 20 20 20 20 21 22 20 18 19 18 16 13 11 8 7 7 7 8 9 10 11 12 13 15 18 20 21
45 45 44 40 37 38 36 30 35 37 35 33 32 30 27 25 24 23 22 21 20 20 19 20 21 21 21 21 21 20 21 18 15 14 12 11 11 11 11 12 13 14 14 15 17 18 20 22 24
49 46 39 35 37 30 33 28 27 39 39 38 36 35 30 27 27 29 27 25 23 22 22 22 21 22 22 21 20 21 22 20 19 17 15 15 15 15 15 15 17 17 18 19 20 21 22 25 26
45 39 33 36 40 34 29 30 31 33 41 40 39 36 34 30 35 32 30 27 25 23 23 22 21 22 22 22 23 25 26 23 21 19 19 19 19 19 19 19 20 21 22 23 23 24 25 27 29
43 40 37 39 40 38 33 29 30 33 39 42 42 40 37 37 36 34 32 29 25 26 25 23 24 23 23 24 27 28 27 23 22 22 23 23 22 21 22 22 24 25 26 26 27 27 28 30 31
46 41 38 38 43 43 39 35 29 28 35 42 45 41 42 39 39 37 36 32 31 28 27 26 28 27 27 29 30 30 28 26 26 28 26 24 24 24 25 26 27 28 29 29 29 30 31 33 34
48 43 40 41 42 45 43 39 32 32 32 37 46 46 43 43 42 39 37 33 31 31 34 33 33 31 31 32 30 32 31 29 30 30 28 27 26 26 28 29 30 31 32 33 33 33 34 35 36
50 46 44 42 44 42 47 50 27 34 30 30 38 44 42 43 44 43 40 37 37 38 37 37 37 35 35 33 32 34 33 33 33 32 32 29 29 28 30 32 33 33 34 35 36 37 38 38 39
48 45 43 43 45 47 44 51 35 40 24 21 30 36 44 45 46 44 44 44 42 41 41 41 39 36 36 35 33 35 37 36 36 34 32 32 31 32 32 34 35 35 37 38 39 40 41 43 43
50 50 50 48 45 49 48 53 43 33 24 29 26 23 25 40 47 48 49 47 45 42 43 44 44 40 38 37 36 36 38 39 39 37 35 34 35 35 35 36 37 38 40 40 42 43 44 45 46
49 52 47 47 46 47 47 52 54 38 33 30 27 30 28 31 35 50 51 51 47 47 46 47 44 43 41 41 39 40 41 41 42 41 39 37 38 39 39 39 39 41 43 44 45 46 48 48 49
56 56 50 52 49 46 45 48 50 34 34 35 30 33 32 36 40 43 51 54 48 48 47 48 47 46 45 44 44 43 44 44 45 45 44 41 41 42 42 43 43 44 45 47 48 49 50 50 51
57 54 54 56 52 48 43 46 46 44 32 36 33 32 34 34 39 43 46 52 52 51 51 51 50 50 49 49 48 47 47 47 48 48 46 44 44 45 46 46 46 48 48 50 51 52 52 52 52
59 58 57 55 56 54 47 46 44 42 35 33 33 31 36 32 34 37 49 50 53 56 55 53 52 53 53 53 53 51 51 50 51 51 50 49 48 48 50 50 50 51 51 54 54 54 54 54 54
61 57 54 55 54 55 55 43 42 41 40 37 35 36 37 40 41 37 36 31 44 53 55 56 56 56 57 56 56 54 55 54 54 54 53 53 52 51 52 53 52 54 54 55 57 57 56 55 54
Wind_Direction
215 216 219 225 226 229 239 243 257 275 287 293 299 303 298 271 314 353 318 202 218 211 208 196 195 189 181 149 147 149 142 148 153 163 163 148 144 114 76 78 67 50 54 53 56 71 66 57 48
214 216 219 226 229 228 230 240 254 267 281 288 294 296 279 172 25 12 14 62 182 228 179 175 186 183 167 174 176 160 162 162 170 170 163 152 121 89 78 73 70 59 66 73 71 62 56 45 37
216 215 219 225 226 225 232 237 250 258 273 281 286 268 204 163 98 41 342 145 119 132 134 161 173 155 151 153 158 175 182 176 172 172 156 151 131 84 80 62 67 73 76 73 66 55 45 43 45
218 218 220 225 224 226 231 239 250 252 264 269 277 240 197 155 123 82 183 145 142 126 131 148 133 141 140 143 147 161 167 171 167 176 159 131 103 83 70 70 81 82 75 60 48 44 46 45 39
222 220 220 224 227 227 228 239 247 244 247 259 252 219 202 153 125 120 153 161 150 121 129 137 143 143 146 147 152 150 159 166 172 174 153 117 97 92 93 92 90 77 65 54 56 56 47 40 38
221 223 223 226 232 230 229 238 242 245 243 245 236 219 198 166 141 123 145 156 148 138 137 140 143 144 144 153 159 156 164 172 175 174 139 122 124 116 108 99 84 76 73 72 62 49 44 43 35
221 220 221 226 233 228 227 233 239 240 241 241 232 214 194 173 148 136 145 154 149 141 137 142 145 150 150 155 161 167 173 173 174 159 149 141 127 123 107 95 84 83 77 65 55 51 45 34 20
223 219 220 227 223 215 225 229 234 234 233 232 229 211 195 178 161 143 148 152 150 144 144 152 157 159 162 166 168 171 174 175 170 165 155 133 125 113 97 99 95 77 65 61 49 36 22 11 1
223 218 216 219 209 209 222 221 225 231 231 228 224 210 197 182 171 156 155 159 158 163 160 156 165 166 166 170 176 183 191 187 172 156 138 135 124 108 108 98 78 65 53 34 21 11 358 350 350
223 217 214 213 209 211 219 217 218 226 229 232 234 222 204 189 180 168 170 166 164 169 170 169 174 176 176 180 190 194 188 172 161 149 146 134 129 131 133 108 80 62 40 17 3 348 342 346 347
215 215 217 214 217 213 219 219 217 222 229 232 237 230 214 200 189 182 183 182 180 178 186 188 192 193 197 196 200 196 176 168 161 159 151 142 141 148 123 97 84 55 25 355 338 335 338 340 340
217 218 217 217 219 214 218 218 221 221 228 230 235 234 227 210 203 194 192 182 191 204 204 201 192 195 202 203 199 191 180 176 173 165 157 160 162 153 133 105 69 34 351 334 330 330 329 330 330
223 215 212 219 222 218 220 219 220 224 227 230 229 234 235 223 208 204 207 204 196 192 191 192 196 198 203 204 195 188 185 188 180 170 172 173 169 158 151 152 193 315 309 313 318 320 322 324 329
222 227 229 218 226 227 221 225 221 226 227 226 228 233 233 235 226 209 213 203 207 209 200 194 203 206 208 205 199 194 193 190 183 183 182 179 186 202 247 279 287 293 301 308 315 319 318 322 324
224 229 238 223 219 227 228 225 221 223 222 226 227 228 232 233 233 227 218 217 204 218 220 214 205 205 208 207 202 204 202 193 192 193 195 199 205 231 260 285 294 297 302 307 313 318 313 316 323
226 226 226 231 229 225 224 225 221 225 216 222 225 227 230 231 233 235 226 224 223 213 223 222 220 216 209 207 208 210 204 200 203 209 216 227 245 259 272 280 288 292 294 297 304 307 310 313 313
222 226 226 231 229 228 229 224 233 221 218 219 223 225 227 230 235 235 234 229 226 228 221 225 223 221 219 219 215 212 204 207 218 227 237 249 261 268 273 280 285 287 291 295 296 302 305 305 309
221 227 226 231 231 232 230 219 235 221 219 220 220 226 224 226 229 230 225 225 226 229 226 227 231 233 228 223 224 215 211 214 223 234 244 257 266 273 279 283 287 289 289 290 293 297 298 302 305
223 224 223 222 232 237 235 227 224 230 217 222 226 223 226 221 228 230 232 226 225 227 231 231 230 231 231 226 219 213 216 221 230 242 250 259 269 278 284 284 285 286 287 289 292 296 300 300 303
225 223 224 225 231 239 241 224 224 227 222 219 225 229 227 226 226 228 233 230 228 228 228 226 229 227 227 226 224 222 224 228 238 246 254 265 275 279 280 281 282 282 285 289 291 295 296 297 299
222 223 224 231 229 236 239 235 234 229 233 230 227 225 232 233 233 230 231 229 227 229 229 226 229 227 227 229 232 230 229 235 242 250 256 267 272 274 277 278 281 284 286 288 290 292 295 297 300
222 221 223 226 235 237 240 242 236 242 233 235 231 229 227 233 237 237 238 236 236 234 230 228 230 230 231 236 238 237 234 240 246 252 263 268 270 274 278 282 284 285 288 288 289 291 292 295 298
226 224 222 226 231 239 240 246 226 236 235 233 231 233 234 234 238 239 241 238 235 235 239 236 235 235 236 237 239 240 241 243 249 257 265 267 269 272 279 281 283 283 283 285 289 291 293 295 297
226 228 228 229 230 236 240 248 220 228 240 238 228 234 237 237 241 240 240 242 241 240 241 244 243 241 244 246 243 241 242 246 251 259 263 266 269 273 275 278 280 280 282 285 287 290 293 295 296
223 225 229 231 229 238 237 240 233 225 245 243 240 242 244 238 241 240 241 241 244 246 246 246 246 245 244 245 246 244 246 250 257 260 261 263 266 270 274 277 280 282 283 285 287 289 291 292 295
224 225 228 232 234 239 244 239 244 241 253 247 250 247 255 263 254 242 245 241 241 245 249 249 249 249 249 247 247 248 249 254 257 259 262 262 266 271 275 277 278 281 283 284 285 287 290 292 295
223 227 230 233 234 239 250 248 251 249 250 251 249 248 258 257 251 251 244 245 244 245 249 250 249 248 247 248 249 252 254 257 259 259 261 264 268 271 274 277 280 282 283 284 286 287 290 292 293
221 226 231 232 236 237 245 251 253 257 248 254 253 255 258 261 262 252 242 239 242 247 245 246 248 248 248 249 251 252 253 256 258 260 263 264 266 271 274 276 279 281 282 282 284 286 288 290 291
223 223 227 230 232 237 242 252 255 259 255 246 250 256 262 255 263 257 241 230 236 240 244 245 246 251 250 250 251 253 254 256 259 261 264 265 267 270 274 276 278 279 281 282 283 285 288 290 291
230 232 234 237 236 238 242 239 250 253 255 249 236 240 245 254 253 255 245 248 244 239 243 245 245 246 253 252 252 254 256 257 260 263 265 266 269 271 272 275 277 278 280 282 284 286 288 289 290
Height
5870 5873 5875 5877 5882 5882 5884 5884 5883 5883 5883 5883 5882 5880 5879 5878 5878 5878 5875 5874 5873 5873 5873 5873 5875 5876 5879 5881 5882 5884 5885 5886 5886 5887 5888 5888 5889 5890 5889 5889 5889 5889 5888 5887 5886 5885 5885 5885 5884
5867 5870 5873 5875 5879 5880 5882 5882 5882 5881 5882 5882 5881 5879 5879 5879 5878 5876 5875 5874 5873 5872 5872 5874 5875 5876 5879 5881 5882 5883 5885 5886 5887 5889 5890 5890 5891 5890 5889 5890 5890 5889 5889 5889 5888 5888 5887 5886 5886
5865 5868 5871 5873 5877 5878 5880 5880 5880 5880 5880 5881 5880 5879 5880 5879 5877 5876 5875 5874 5872 5872 5872 5874 5875 5877 5878 5880 5881 5883 5885 5887 5889 5890 5890 5891 5891 5890 5890 5890 5890 5890 5890 5890 5889 5889 5887 5886 5885
5863 5866 5870 5871 5875 5876 5878 5878 5878 5879 5879 5880 5879 5880 5880 5879 5877 5876 5876 5874 5873 5873 5874 5876 5876 5877 5880 5881 5883 5883 5886 5888 5889 5891 5891 5892 5892 5892 5892 5891 5891 5891 5890 5890 5890 5889 5888 5888 5886
5860 5863 5867 5869 5873 5874 5875 5876 5877 5877 5878 5879 5879 5879 5879 5878 5877 5876 5876 5874 5874 5874 5876 5877 5878 5879 5881 5883 5884 5885 5887 5889 5890 5891 5891 5892 5893 5893 5892 5891 5891 5891 5891 5891 5891 5890 5889 5889 5888
5856 5860 5865 5868 5869 5871 5873 5874 5875 5876 5877 5878 5878 5878 5879 5878 5877 5876 5875 5875 5874 5876 5877 5878 5879 5880 5882 5884 5886 5887 5888 5889 5890 5891 5891 5893 5893 5893 5893 5892 5892 5892 5892 5892 5891 5891 5891 5890 5889
5853 5857 5861 5864 5867 5869 5871 5872 5873 5875 5876 5877 5877 5877 5878 5877 5877 5877 5875 5875 5876 5877 5879 5880 5880 5881 5882 5884 5886 5887 5889 5890 5891 5892 5893 5894 5893 5893 5893 5893 5893 5893 5893 5892 5892 5891 5891 5890 5889
5850 5853 5858 5861 5862 5864 5868 5869 5871 5872 5875 5875 5875 5875 5876 5877 5877 5877 5876 5877 5877 5878 5879 5881 5883 5883 5884 5885 5886 5888 5889 5890 5892 5893 5894 5894 5894 5894 5895 5894 5894 5894 5893 5893 5893 5892 5891 5890 5889
5846 5849 5855 5857 5858 5860 5863 5866 5867 5870 5873 5873 5873 5874 5875 5876 5876 5876 5877 5878 5878 5879 5880 5881 5883 5884 5885 5887 5888 5889 5890 5892 5893 5894 5894 5895 5895 5896 5896 5896 5895 5895 5894 5894 5894 5892 5891 5890 5888
5841 5846 5850 5852 5852 5855 5859 5862 5864 5868 5870 5871 5872 5873 5874 5875 5875 5875 5877 5877 5879 5880 5880 5881 5883 5885 5886 5887 5888 5889 5890 5891 5892 5894 5894 5895 5895 5895 5896 5896 5895 5894 5894 5893 5892 5892 5890 5889 5887
5838 5842 5844 5848 5851 5854 5858 5860 5863 5865 5867 5870 5871 5872 5873 5874 5874 5874 5876 5878 5879 5880 5881 5881 5882 5884 5886 5887 5887 5888 5889 5890 5891 5893 5893 5894 5895 5895 5896 5895 5894 5894 5893 5893 5892 5890 5889 5888 5886
5833 5837 5840 5844 5848 5850 5854 5858 5860 5861 5865 5868 5869 5870 5872 5873 5874 5874 5874 5874 5877 5879 5880 5881 5881 5883 5885 5886 5887 5889 5890 5890 5891 5892 5892 5893 5893 5894 5894 5894 5894 5894 5893 5892 5891 5889 5888 5886 5884
5828 5831 5835 5840 5844 5845 5851 5853 5856 5858 5862 5865 5866 5867 5871 5873 5873 5873 5874 5874 5875 5876 5877 5878 5879 5881 5883 5884 5886 5887 5889 5890 5891 5891 5892 5892 5893 5893 5893 5893 5892 5892 5891 5891 5889 5887 5885 5883 5881
5823 5826 5830 5833 5837 5840 5845 5849 5853 5855 5859 5861 5863 5865 5868 5871 5872 5871 5873 5873 5873 5875 5876 5876 5878 5880 5881 5884 5885 5886 5886 5887 5888 5889 5890 5891 5892 5892 5891 5891 5891 5890 5890 5888 5886 5885 5882 5880 5878
5817 5820 5824 5828 5830 5833 5841 5845 5851 5849 5854 5858 5859 5862 5865 5867 5869 5870 5872 5872 5871 5873 5875 5876 5876 5877 5880 5881 5883 5885 5886 5887 5888 5889 5889 5889 5889 5889 5889 5889 5888 5888 5887 5885 5883 5881 5879 5876 5874
5811 5815 5817 5822 5825 5827 5832 5840 5842 5845 5846 5852 5855 5858 5861 5863 5865 5867 5869 5871 5871 5871 5873 5875 5876 5877 5878 5879 5881 5883 5885 5886 5887 5888 5888 5888 5888 5887 5886 5886 5885 5884 5883 5881 5879 5877 5875 5872 5869
5802 5805 5811 5817 5821 5823 5826 5834 5835 5839 5842 5846 5850 5852 5855 5859 5862 5865 5866 5867 5869 5870 5871 5872 5874 5875 5877 5878 5879 5880 5883 5884 5886 5886 5886 5886 5885 5884 5884 5883 5882 5881 5879 5877 5875 5873 5871 5867 5865
5795 5799 5808 5814 5818 5816 5820 5827 5829 5832 5836 5839 5842 5847 5850 5854 5856 5857 5859 5862 5865 5867 5869 5870 5872 5873 5875 5875 5877 5879 5880 5881 5882 5883 5883 5883 5882 5882 5881 5879 5878 5877 5875 5873 5871 5869 5866 5863 5859
5790 5796 5803 5807 5809 5810 5814 5818 5822 5826 5829 5834 5838 5840 5845 5848 5847 5852 5856 5857 5860 5863 5866 5867 5868 5870 5872 5873 5873 5874 5875 5877 5879 5880 5880 5879 5879 5878 5878 5876 5874 5873 5871 5869 5866 5864 5862 5857 5854
5782 5790 5797 5801 5803 5804 5807 5811 5815 5818 5823 5826 5832 5836 5839 5839 5842 5847 5851 5854 5857 5859 5861 5862 5863 5866 5867 5869 5870 5871 5872 5874 5875 5875 5875 5875 5874 5874 5872 5871 5869 5867 5865 5863 5861 5858 5856 5852 5849
5776 5782 5789 5794 5798 5798 5802 5805 5810 5815 5819 5821 5824 5829 5833 5836 5837 5841 5846 5850 5850 5853 5856 5857 5858 5859 5861 5863 5866 5867 5868 5869 5869 5870 5869 5869 5869 5868 5867 5865 5864 5861 5859 5856 5854 5851 5849 5846 5844
5769 5778 5782 5787 5792 5792 5797 5795 5803 5808 5810 5813 5818 5821 5827 5831 5833 5837 5841 5846 5849 5850 5848 5850 5852 5853 5855 5857 5861 5863 5863 5864 5863 5864 5865 5865 5864 5862 5860 5859 5857 5855 5853 5850 5848 5845 5843 5840 5837
5760 5769 5775 5780 5783 5785 5790 5789 5803 5803 5806 5807 5813 5817 5822 5825 5828 5832 5836 5840 5841 5841 5846 5846 5846 5848 5850 5851 5854 5856 5858 5858 5857 5859 5860 5860 5858 5856 5854 5852 5851 5849 5846 5843 5841 5839 5836 5832 5828
5753 5762 5767 5771 5773 5775 5783 5782 5796 5796 5803 5806 5808 5809 5814 5819 5823 5827 5829 5832 5834 5836 5838 5841 5843 5844 5845 5847 5848 5850 5851 5851 5851 5852 5853 5853 5850 5849 5847 5845 5843 5841 5838 5836 5833 5831 5828 5825 5821
5745 5751 5755 5761 5764 5768 5774 5776 5786 5799 5802 5803 5803 5805 5806 5810 5814 5818 5819 5822 5826 5829 5832 5834 5836 5839 5839 5840 5842 5843 5844 5843 5843 5843 5844 5844 5842 5841 5839 5838 5836 5833 5831 5828 5826 5822 5819 5815 5812
5736 5739 5747 5752 5758 5763 5767 5772 5774 5793 5795 5799 5799 5799 5800 5803 5805 5809 5812 5813 5817 5822 5824 5826 5829 5832 5831 5833 5834 5835 5836 5836 5835 5835 5835 5835 5834 5832 5831 5829 5827 5825 5822 5819 5816 5813 5810 5807 5803
5724 5729 5740 5744 5749 5754 5759 5768 5770 5780 5784 5787 5790 5791 5793 5793 5795 5798 5800 5804 5808 5812 5817 5819 5819 5821 5822 5824 5825 5827 5827 5828 5828 5826 5825 5826 5825 5823 5822 5820 5817 5815 5813 5809 5806 5803 5800 5796 5792
5717 5725 5730 5734 5740 5745 5752 5755 5761 5766 5777 5778 5780 5782 5782 5781 5783 5787 5787 5793 5798 5801 5804 5806 5809 5811 5812 5812 5814 5816 5817 5816 5816 5815 5815 5815 5814 5812 5811 5809 5807 5804 5801 5798 5795 5792 5788 5784 5780
5708 5712 5719 5725 5729 5734 5741 5748 5754 5757 5763 5770 5771 5774 5775 5774 5773 5776 5778 5780 5784 5788 5792 5795 5798 5801 5802 5802 5803 5804 5806 5805 5804 5804 5804 5803 5803 5802 5800 5797 5796 5793 5790 5787 5784 5780 5777 5773 5769
5697 5703 5711 5714 5722 5727 5730 5741 5746 5750 5752 5756 5760 5762 5764 5766 5765 5766 5770 5773 5775 5776 5780 5783 5786 5788 5790 5791 5792 5792 5794 5794 5793 5793 5793 5792 5792 5791 5789 5787 5784 5782 5779 5776 5773 5770 5766 5762 5758